This is the latest recevied weather packets stored in our database for station/object N9BLE. If no packets are shown the sender has not sent any weather packets the latest 10 day(s).
| Time | Temp. | Humidity | Pressure | Rain* | Wind** | Luminosity | Snow |
|---|---|---|---|---|---|---|---|
| 1778086188 | 12.78° C | 39% | 1017.8 hPa | 0 mm | - | 301 W/m² | - |
| 1778085885 | 12.22° C | 42% | 1018 hPa | 0 mm | - | 310 W/m² | - |
| 1778085583 | 12.22° C | 38% | 1018.1 hPa | 0 mm | - | 244 W/m² | - |
| 1778085278 | 12.22° C | 38% | 1018 hPa | 0 mm | - | 278 W/m² | - |
| 1778084972 | 11.67° C | 43% | 1017.8 hPa | 0 mm | - | 260 W/m² | - |
| 1778084671 | 12.22° C | 38% | 1017.8 hPa | 0 mm | - | 185 W/m² | - |
| 1778084368 | 12.22° C | 39% | 1017.9 hPa | 0 mm | - | 205 W/m² | - |
| 1778084066 | 12.22° C | 43% | 1017.9 hPa | 0 mm | - | 285 W/m² | - |
| 1778083763 | 11.67° C | 40% | 1018 hPa | 0 mm | - | 241 W/m² | - |
| 1778083461 | 11.67° C | 40% | 1017.8 hPa | 0 mm | - | 237 W/m² | - |
| 1778083158 | 11.67° C | 42% | 1017.8 hPa | 0 mm | - | 212 W/m² | - |
| 1778082855 | 11.11° C | 42% | 1018 hPa | 0 mm | - | 206 W/m² | - |
| 1778081737 | 11.11° C | 46% | 1017.7 hPa | 0 mm | - | 124 W/m² | - |
| 1778081434 | 10.56° C | 45% | 1017.8 hPa | 0 mm | - | 118 W/m² | - |
| 1778081131 | 10.56° C | 43% | 1017.8 hPa | 0 mm | - | 134 W/m² | - |
| 1778080829 | 10.56° C | 43% | 1017.8 hPa | 0 mm | - | 174 W/m² | - |
| 1778080527 | 11.11° C | 43% | 1017.8 hPa | 0 mm | - | 199 W/m² | - |
| 1778080224 | 11.11° C | 45% | 1018 hPa | 0 mm | - | 220 W/m² | - |
| 1778079920 | 11.11° C | 45% | 1018 hPa | 0 mm | - | 208 W/m² | - |
| 1778079617 | 10.56° C | 46% | 1017.9 hPa | 0 mm | - | 219 W/m² | - |
| 1778079314 | 11.11° C | 46% | 1017.8 hPa | 0 mm | - | 218 W/m² | - |
| 1778079011 | 10.56° C | 43% | 1018 hPa | 0 mm | - | 188 W/m² | - |
| 1778078708 | 10.56° C | 44% | 1017.8 hPa | 0 mm | - | 175 W/m² | - |
| 1778078405 | 10.56° C | 47% | 1018.1 hPa | 0 mm | - | 145 W/m² | - |
| 1778078103 | 10° C | 49% | 1017.9 hPa | 0 mm | - | 113 W/m² | - |
* Rain latest hour (hover to see other rain measurements)
** Current wind speed in m/s (hover to see current wind gust speed)